Regional Weather Roundup
Issued by NWS

Home | Current Version | Previous Version | Graphics & Text | Print | Product List | Glossary On
Versions: 1 2 3 4 5 6 7 8 9 10 11 12 13 14 15 16 17 18 19 20 21 22 23 24 25 26 27 28 29 30 31 32 33 34 35 36 37 38 39 40 41 42 43 44 45 46 47 48 49 50
069
ASUS44 KJAN 210210
RWRMS

MISSISSIPPI HOURLY WEATHER ROUNDUP
NATIONAL WEATHER SERVICE JACKSON MS
900 PM CDT SUN APR 20 2014

NOTE: "FAIR: INDICATES FEW OR NO CLOUDS BELOW 12,000 FEET WITH NO
SIGNIFICANT WEATHER AND/OR OBSTRUCTIONS TO VISIBILITY.

MSZ001>002-007>008-010>013-018>021-025>028-034>036-210300-
NORTHWEST MISSISSIPPI

CITY           SKY/WX    TMP DP  RH WIND       PRES   REMARKS
CLARKSDALE       N/A     68  50  52 CALM      30.10S
CLEVELAND      FAIR      70  53  54 CALM      30.09R
GREENWOOD      CLEAR     62  55  77 CALM      30.10R
GREENVILLE     PTCLDY    70  49  47 SE5       30.08R
GRENADA        FAIR      61  54  77 CALM      30.11R
OLIVE BRANCH   CLEAR     66  52  59 CALM      30.10
OXFORD         LGT RAIN  63  50  63 CALM      30.13R
TUNICA         PTCLDY    68  50  52 CALM      30.10S
$$

MSZ003>006-009-014>017-022>024-029>033-037>039-210300-
NORTHEAST MISSISSIPPI

CITY           SKY/WX    TMP DP  RH WIND       PRES   REMARKS
BELMONT        FAIR      62  51  68 CALM      30.12R
COLUMBUS AFB   CLEAR     62  53  72 CALM      30.12S
CORINTH        FAIR      63  50  63 CALM      30.11R
GOLDN TRIANGLE CLEAR     63  48  59 CALM      30.15S
STARKVILLE     FAIR      59  54  82 CALM      30.12S
TUPELO         CLEAR     59  52  77 CALM      30.11S
$$

MSZ040-058-210300-
CENTRAL MISSISSIPPI

CITY           SKY/WX    TMP DP  RH WIND       PRES   REMARKS
JACKSON INTL   CLEAR     63  54  72 CALM      30.10S
JACKSON HAWKNS CLEAR     65  52  62 CALM      30.10S
MERIDIAN KEY   CLEAR     60  54  80 CALM      30.13R
MERIDIAN NAS   CLEAR     62  51  67 CALM      30.13R
RAYMOND        FAIR      63  57  82 CALM      30.10R
VICKSBURG      PTCLDY    68  60  75 CALM      30.08R
$$

MSZ059>079-210300-
SOUTH MISSISSIPPI

CITY           SKY/WX    TMP DP  RH WIND       PRES   REMARKS
BROOKHAVEN     FAIR      63  57  82 CALM      30.12R
COLUMBIA       FAIR      63  55  77 MISG      30.10S
HATTIESBURG    CLEAR     64  56  75 CALM      30.13R
MCCOMB         CLEAR     66  54  65 CALM      30.10R
NATCHEZ        CLEAR     66  55  68 CALM      30.10R
PINE BELT      CLEAR     61  54  77 CALM      30.13R
$$

MSZ080>082-210300-
COASTAL MISSISSIPPI

CITY           SKY/WX    TMP DP  RH WIND       PRES   REMARKS
BAY ST LOUIS   CLEAR     63  55  77 SE5       30.13R
BILOXI         CLEAR     64  58  81 S9        30.14R
PASCAGOULA     CLEAR     60  59  96 S3        30.15R
GULFPORT       CLEAR     66  58  75 SE9       30.14R
$$



USA.gov is the U.S. government's official web portal to all federal, state and local government web resources and services.